Probability
6 3 3 3 3 3 0 0 0 3 6 6 6 6 3 3 3 3 3 3 3 3 3 3 3 3 6 6 10 10 6 6 6 0 0 3 10 6 3 3 3 0 0
3 3 3 3 3 3 0 0 3 3 3 3 3 3 0 0 0 3 0 3 3 3 3 3 3 3 3 6 10 10 6 6 3 0 0 3 3 6 6 3 0 0 3
3 3 3 3 3 3 0 0 0 3 3 3 3 3 0 0 0 0 0 0 0 3 3 3 3 3 3 6 6 6 6 3 3 3 0 0 0 3 3 0 0 0 0
3 3 6 6 6 3 0 0 0 0 0 0 3 0 0 0 0 0 0 0 0 0 3 3 3 3 3 6 3 6 3 3 3 3 0 3 3 3 3 0 0 3 0
3 3 6 6 6 0 0 0 0 0 0 0 0 0 0 0 0 0 0 0 0 3 0 0 0 3 0 0 3 6 3 3 3 3 3 3 3 3 3 3 0 0 3
3 3 6 6 3 0 0 0 0 0 0 0 0 0 0 0 0 0 0 3 3 0 0 0 0 0 0 0 0 0 0 3 3 3 3 3 3 3 3 3 0 0 0
3 3 6 3 3 0 0 0 0 0 3 0 0 0 0 0 0 0 0 3 3 0 0 0 0 0 0 0 0 0 0 0 0 3 3 3 3 3 3 3 3 3 0
3 3 3 3 0 0 0 0 0 0 0 0 0 0 0 0 0 0 0 0 0 0 0 3 0 0 0 0 0 0 0 0 0 0 3 3 3 3 3 3 3 0 0
3 6 6 0 0 3 0 0 0 0 0 0 0 0 0 0 0 0 0 0 0 0 0 0 0 0 0 0 0 0 0 0 0 0 0 0 0 0 0 3 3 0 0
6 6 3 3 3 0 0 0 0 0 0 0 0 0 0 0 0 0 0 0 0 0 0 0 0 0 0 0 0 0 0 0 0 0 0 0 0 0 0 0 6 0 0
6 3 3 10 10 6 3 3 3 3 3 3 0 0 3 0 0 0 0 0 0 0 3 3 0 0 0 0 0 0 0 0 0 0 0 0 0 0 0 0 0 0 0
3 3 6 6 0 0 0 0 0 0 0 0 0 0 3 0 0 0 0 0 0 0 0 0 0 0 0 0 0 0 0 0 0 0 0 0 0 0 0 0 0 0 3
6 6 6 3 0 0 0 0 0 0 0 0 0 0 0 0 0 0 0 0 0 0 0 0 0 0 0 0 0 0 0 0 0 0 0 0 0 0 3 3 0 0 0
3 0 0 0 0 0 0 0 0 0 0 0 0 3 0 0 0 0 0 0 0 0 0 0 0 0 0 0 0 0 0 0 0 0 0 0 0 3 3 3 3 3 0
6 0 0 0 0 0 0 0 0 0 0 3 0 0 0 0 0 0 0 0 0 0 0 0 0 0 0 0 0 0 0 0 0 0 0 0 0 0 0 0 3 0 0
0 0 0 0 0 0 0 0 0 0 0 0 0 0 0 0 0 0 0 0 0 0 0 0 0 0 0 0 0 0 0 0 0 0 0 0 0 0 0 0 0 0 0
3 0 0 0 0 0 0 0 0 0 0 0 0 0 0 0 0 0 0 0 0 0 0 0 0 0 0 0 0 0 0 0 0 0 0 3 0 0 0 0 0 0 0
3 0 0 0 0 0 0 0 0 0 0 0 0 0 0 0 0 0 0 0 0 0 0 0 0 0 0 0 0 0 0 0 0 0 0 0 0 0 0 0 0 0 0
0 0 0 0 0 0 0 0 0 0 0 0 0 0 0 0 0 0 0 0 0 0 0 0 0 0 0 0 0 0 0 0 0 3 3 6 3 3 0 0 0 0 0
3 0 0 0 0 0 0 0 0 0 0 0 0 0 0 0 0 0 0 0 0 0 0 0 0 0 0 0 0 0 0 0 0 0 3 3 3 3 3 3 0 0 3
3 0 0 0 0 0 0 0 0 0 0 0 0 0 0 0 0 0 0 0 0 0 0 0 0 0 0 0 0 0 0 0 0 0 0 3 0 0 3 3 3 3 3
3 0 0 0 0 0 0 0 0 0 0 0 0 0 0 0 0 0 0 0 0 0 0 0 0 0 0 0 0 0 0 0 0 0 0 0 3 3 3 3 0 0 0
3 0 0 0 0 0 0 0 0 0 0 0 0 0 0 0 0 0 0 0 0 0 0 0 0 0 0 0 0 0 0 0 0 0 0 0 0 0 0 0 0 0 0
3 0 0 0 0 0 0 0 0 0 0 0 0 0 3 3 0 0 0 0 0 0 0 0 0 0 0 0 0 0 0 0 0 0 0 0 0 0 0 0 0 0 0
3 3 3 3 3 3 0 0 0 0 0 0 0 0 3 3 0 0 0 0 0 0 0 0 0 0 0 0 0 0 0 0 0 0 0 0 0 0 0 0 0 0 0
3 3 3 3 3 3 3 3 3 3 3 3 3 3 0 0 0 0 0 0 0 0 0 0 0 0 0 0 0 0 0 0 0 0 0 0 0 0 0 0 0 0 0
Height
5778 5775 5772 5768 5765 5762 5758 5755 5752 5749 5746 5743 5740 5736 5733 5729 5726 5723 5719 5716 5714 5712 5710 5708 5707 5706 5705 5705 5704 5704 5705 5705 5707 5707 5708 5709 5711 5712 5714 5715 5715 5716 5717
5776 5773 5770 5766 5763 5760 5756 5753 5750 5747 5744 5740 5737 5733 5730 5726 5723 5719 5716 5713 5711 5708 5706 5705 5703 5702 5701 5700 5699 5699 5699 5700 5701 5701 5702 5703 5705 5706 5707 5707 5708 5708 5708
5774 5771 5768 5765 5762 5758 5755 5751 5748 5745 5741 5738 5734 5730 5727 5723 5720 5716 5713 5709 5707 5705 5703 5701 5700 5698 5697 5696 5695 5695 5694 5695 5695 5696 5696 5697 5698 5699 5700 5700 5700 5700 5700
5773 5770 5767 5764 5760 5757 5753 5750 5747 5743 5739 5736 5732 5728 5724 5720 5717 5713 5710 5707 5704 5701 5699 5697 5696 5694 5693 5692 5691 5690 5690 5690 5690 5691 5691 5692 5692 5693 5693 5693 5693 5693 5693
5772 5769 5766 5763 5759 5756 5752 5749 5745 5742 5738 5734 5730 5726 5723 5719 5715 5711 5708 5704 5701 5699 5696 5694 5692 5690 5689 5688 5687 5686 5686 5686 5686 5686 5686 5687 5687 5687 5687 5687 5686 5686 5686
5771 5768 5765 5762 5758 5755 5751 5747 5744 5740 5737 5733 5729 5726 5722 5718 5714 5710 5706 5702 5699 5696 5694 5691 5689 5687 5686 5685 5684 5683 5683 5682 5682 5682 5682 5682 5682 5682 5681 5681 5680 5680 5680
5770 5767 5764 5761 5758 5754 5750 5747 5743 5740 5736 5732 5728 5725 5721 5717 5712 5708 5704 5700 5697 5694 5692 5689 5687 5685 5684 5682 5681 5680 5679 5679 5679 5679 5678 5678 5678 5678 5677 5676 5674 5673 5673
5768 5765 5763 5760 5757 5753 5750 5746 5743 5739 5736 5732 5728 5724 5720 5716 5711 5707 5703 5698 5695 5692 5690 5687 5685 5683 5681 5680 5679 5677 5677 5676 5676 5675 5675 5674 5673 5673 5672 5671 5670 5669 5668
5766 5763 5761 5758 5755 5752 5749 5746 5742 5739 5735 5732 5728 5724 5719 5715 5711 5706 5701 5697 5694 5691 5689 5686 5684 5682 5680 5678 5677 5675 5674 5674 5673 5672 5671 5670 5669 5669 5668 5666 5665 5664 5663
5764 5761 5759 5757 5754 5751 5748 5745 5741 5738 5734 5731 5727 5723 5719 5714 5710 5705 5700 5696 5693 5690 5687 5685 5683 5680 5678 5676 5675 5674 5673 5672 5671 5670 5669 5668 5666 5665 5664 5663 5661 5660 5659
5762 5759 5757 5755 5752 5750 5747 5744 5740 5737 5733 5730 5726 5722 5718 5713 5709 5704 5700 5696 5692 5689 5687 5684 5682 5679 5677 5675 5673 5672 5671 5670 5668 5667 5666 5665 5664 5663 5661 5660 5658 5657 5655
5759 5757 5755 5753 5751 5748 5746 5743 5739 5736 5733 5729 5725 5721 5717 5713 5708 5704 5699 5695 5691 5688 5686 5683 5680 5678 5675 5673 5672 5671 5669 5668 5666 5665 5664 5663 5662 5660 5659 5657 5655 5653 5652
5757 5755 5753 5751 5749 5747 5744 5741 5738 5735 5732 5728 5724 5720 5716 5712 5708 5703 5699 5695 5691 5688 5685 5682 5679 5677 5674 5672 5671 5669 5667 5666 5664 5663 5661 5660 5659 5658 5656 5654 5652 5650 5648
5754 5752 5751 5749 5747 5744 5742 5739 5737 5734 5730 5727 5723 5719 5715 5711 5707 5703 5698 5694 5691 5687 5684 5681 5678 5676 5674 5671 5669 5668 5666 5664 5662 5661 5659 5658 5657 5655 5653 5651 5649 5646 5644
5750 5749 5748 5746 5744 5742 5739 5737 5735 5732 5729 5725 5722 5718 5714 5710 5705 5701 5697 5693 5690 5686 5683 5680 5678 5675 5672 5670 5668 5666 5664 5663 5661 5659 5657 5656 5654 5652 5650 5648 5645 5642 5639
5746 5745 5744 5742 5740 5738 5736 5734 5732 5729 5726 5723 5720 5716 5712 5708 5704 5700 5696 5692 5688 5685 5682 5679 5676 5673 5671 5669 5667 5664 5663 5661 5659 5657 5656 5654 5652 5650 5648 5645 5642 5639 5636
5742 5741 5739 5738 5736 5735 5733 5731 5728 5726 5723 5720 5717 5713 5709 5706 5702 5698 5694 5690 5687 5683 5680 5677 5674 5672 5669 5667 5665 5663 5661 5659 5657 5655 5653 5651 5649 5647 5645 5642 5639 5635 5632
5736 5736 5735 5734 5732 5731 5729 5727 5725 5722 5719 5716 5713 5710 5706 5703 5699 5696 5692 5689 5685 5681 5678 5675 5672 5670 5667 5665 5663 5661 5659 5657 5655 5653 5651 5649 5647 5644 5642 5639 5635 5631 5628
5731 5730 5730 5729 5727 5726 5724 5723 5720 5718 5715 5712 5709 5706 5703 5700 5697 5693 5690 5687 5683 5680 5676 5673 5670 5667 5665 5662 5660 5658 5656 5654 5652 5650 5648 5646 5644 5641 5638 5635 5632 5628 5624
5725 5725 5724 5723 5722 5721 5720 5718 5716 5713 5711 5708 5705 5702 5699 5696 5693 5691 5688 5684 5681 5678 5674 5671 5668 5665 5662 5660 5658 5656 5653 5651 5649 5647 5646 5644 5641 5638 5635 5632 5629 5625 5621
5719 5719 5718 5717 5717 5716 5714 5712 5710 5708 5706 5703 5701 5698 5696 5693 5690 5687 5685 5682 5679 5676 5672 5669 5666 5663 5660 5657 5655 5653 5651 5649 5647 5645 5643 5641 5638 5636 5633 5630 5626 5622 5618
5712 5712 5712 5711 5711 5710 5708 5707 5705 5703 5701 5699 5696 5694 5692 5689 5686 5684 5681 5679 5676 5673 5670 5667 5663 5660 5658 5655 5652 5650 5648 5646 5644 5642 5641 5639 5636 5634 5631 5627 5624 5620 5616
5706 5706 5705 5705 5704 5703 5702 5701 5699 5697 5695 5694 5692 5690 5687 5685 5683 5680 5678 5675 5672 5670 5667 5664 5661 5658 5656 5653 5651 5648 5646 5644 5642 5640 5638 5636 5634 5631 5628 5625 5621 5618 5614
5699 5699 5699 5698 5698 5697 5696 5694 5693 5692 5690 5688 5687 5685 5683 5681 5679 5677 5674 5672 5669 5666 5663 5661 5658 5656 5653 5651 5649 5646 5644 5642 5640 5638 5636 5634 5632 5629 5626 5623 5619 5616 5612
5691 5692 5692 5692 5691 5690 5689 5688 5687 5686 5685 5684 5682 5680 5679 5677 5675 5673 5671 5668 5666 5663 5661 5658 5655 5653 5651 5649 5646 5644 5642 5640 5638 5636 5634 5632 5629 5627 5624 5621 5617 5613 5610
5684 5684 5685 5685 5685 5684 5683 5682 5682 5681 5680 5679 5678 5676 5675 5673 5671 5669 5667 5665 5663 5660 5658 5655 5652 5650 5648 5646 5644 5642 5640 5637 5635 5633 5631 5629 5627 5625 5622 5619 5615 5611 5607
Wind_Speed
16 16 16 17 17 16 16 16 15 15 15 16 17 17 18 17 16 15 15 14 14 13 12 12 12 13 14 15 15 16 16 17 18 20 22 22 22 22 23 24 26 26 26
16 15 16 16 16 15 15 14 14 14 15 16 16 17 17 17 16 16 16 15 14 13 12 11 11 11 12 13 14 15 16 17 18 19 20 21 22 22 23 25 26 26 26
15 15 16 15 14 14 15 14 14 15 16 16 17 17 16 16 16 15 15 14 13 12 12 11 11 11 11 12 13 14 15 16 17 18 19 20 21 22 23 24 24 25 25
14 15 15 14 14 14 14 14 15 16 17 17 17 16 15 15 15 15 14 13 12 11 11 11 11 11 12 12 11 12 13 14 15 16 17 18 19 20 22 23 23 23 24
13 14 14 14 14 14 15 15 16 16 17 16 15 14 15 15 15 15 14 13 11 11 11 11 11 10 11 10 10 10 11 12 13 14 14 16 17 18 19 21 21 22 23
13 13 14 15 14 14 14 15 16 16 16 15 15 15 15 15 16 16 14 13 12 11 11 11 11 10 10 10 10 10 10 10 11 11 12 14 15 16 17 19 20 20 20
13 13 14 14 14 14 15 15 15 15 15 15 16 16 16 16 17 17 16 14 12 11 11 11 11 11 11 10 10 9 9 10 11 11 12 13 14 14 15 16 16 17 18
13 13 13 13 13 14 14 14 14 14 14 15 16 17 17 17 17 17 16 14 12 11 10 10 10 9 9 9 9 9 9 9 10 11 12 12 13 14 15 15 15 15 17
12 12 12 12 12 13 14 14 14 14 14 15 16 17 18 18 18 18 16 14 12 11 10 10 9 9 8 8 9 9 9 8 8 10 11 11 11 12 13 13 14 15 15
12 12 12 11 11 12 13 14 13 14 14 15 16 17 18 18 18 17 16 14 13 12 10 10 10 9 9 8 8 8 8 7 8 9 10 11 10 9 10 11 12 13 13
12 12 12 11 11 12 13 13 13 14 15 16 16 18 18 18 18 18 16 14 13 12 11 10 9 10 9 9 8 8 9 9 9 9 10 10 9 9 9 10 12 13 13
11 11 11 10 11 12 12 12 12 13 14 15 16 17 17 17 18 18 17 15 14 12 11 11 10 10 9 8 8 9 9 9 9 9 9 9 9 10 10 11 11 12 14
11 11 11 10 11 11 11 11 12 13 14 15 15 16 17 17 18 18 17 16 14 13 12 12 11 11 10 9 8 8 8 9 9 10 10 9 9 10 11 12 13 14 14
12 12 12 12 12 12 11 11 12 12 13 14 15 16 17 17 17 17 17 16 15 14 13 13 12 11 9 9 8 8 9 9 9 10 10 9 9 10 12 13 14 14 14
13 13 13 13 13 13 12 12 12 14 14 14 15 16 16 16 17 16 16 16 15 14 13 13 12 11 10 9 9 9 9 9 10 10 11 10 11 12 13 14 14 14 15
13 13 13 14 13 13 13 13 14 14 14 14 15 16 16 16 16 16 16 15 14 14 13 12 11 10 10 10 10 10 9 9 9 10 11 11 11 12 14 15 15 16 16
14 14 14 13 14 14 14 14 14 14 15 15 16 16 16 16 16 16 15 15 14 14 13 13 12 11 11 10 10 10 10 10 10 10 11 12 12 13 14 15 16 17 17
15 15 15 14 14 15 15 15 14 15 15 16 16 16 16 16 15 15 14 14 14 14 14 13 12 12 11 11 10 11 11 10 10 11 11 12 12 14 15 16 17 17 17
16 16 16 15 15 15 15 15 15 16 16 16 16 16 16 15 15 14 14 14 14 14 14 14 13 13 12 11 11 12 12 11 11 11 11 12 13 14 15 17 18 18 17
18 17 17 16 16 16 16 16 16 16 16 16 16 16 15 15 14 14 14 14 14 14 14 14 14 13 13 12 11 12 12 12 12 12 12 13 14 15 15 16 18 18 18
18 17 17 17 17 17 17 16 16 16 16 16 16 15 15 15 15 14 14 15 15 15 14 14 14 13 13 12 12 12 12 11 11 11 12 13 14 15 15 16 17 18 18
19 18 18 18 17 17 17 17 17 17 17 16 16 15 15 15 15 14 14 14 15 15 15 15 14 13 13 12 12 11 11 10 11 11 12 13 13 14 15 16 17 18 19
18 18 18 18 18 17 17 16 16 16 15 15 15 15 15 14 14 14 14 14 15 15 15 14 13 13 12 12 12 12 11 11 12 12 12 12 13 14 15 16 17 18 19
19 18 18 18 18 17 17 16 16 15 15 15 15 15 14 14 14 14 14 14 14 13 13 13 13 12 12 11 12 12 11 11 11 12 12 13 14 15 16 17 17 18 19
19 19 19 18 17 17 17 16 16 15 15 14 14 14 14 14 14 13 13 12 12 12 13 13 13 12 11 11 12 12 12 11 11 11 12 13 14 15 16 17 18 18 18
19 19 18 18 18 17 17 16 16 15 14 14 14 13 13 13 13 12 12 12 12 13 13 13 13 12 11 11 12 12 12 12 11 12 13 14 14 15 16 17 17 18 18
Wind_Direction
329 328 330 329 327 327 326 324 324 325 324 322 323 323 324 324 322 321 320 316 312 307 300 294 286 280 276 272 271 270 263 260 260 260 256 257 258 258 259 261 262 262 260
332 334 335 335 335 336 336 332 329 330 330 330 328 327 327 328 327 324 320 315 313 309 300 293 290 289 285 281 277 270 264 260 262 260 258 259 259 259 261 264 264 265 263
339 340 340 341 342 342 341 339 336 336 335 333 332 331 329 329 330 327 322 317 313 308 301 295 291 293 292 292 284 275 268 265 263 259 259 261 261 261 262 264 266 266 263
341 343 344 344 346 346 344 342 341 341 339 338 336 337 337 336 336 332 328 322 315 310 305 300 298 296 295 291 287 281 274 269 265 262 261 262 264 264 264 266 268 268 264
341 342 344 347 348 349 349 348 345 345 346 348 350 351 349 345 342 338 333 326 319 314 310 304 303 300 297 290 284 282 283 279 271 265 264 265 267 269 268 268 270 268 264
338 339 342 345 348 350 353 352 352 353 356 356 355 355 353 351 349 346 340 332 322 317 314 312 310 306 302 296 288 285 282 278 272 269 271 269 272 274 274 273 272 271 269
332 334 339 344 347 349 350 354 356 356 357 358 356 355 355 353 350 347 345 338 330 324 319 316 313 311 308 304 297 290 285 282 277 275 278 273 272 274 278 280 280 279 276
326 328 333 336 339 344 350 352 353 355 357 358 358 357 355 353 352 349 345 341 334 329 327 325 324 323 318 311 303 295 291 290 290 285 284 283 279 277 282 285 285 283 281
323 324 327 330 337 346 348 350 351 352 354 356 356 356 354 353 352 351 350 347 344 339 336 333 330 325 322 317 310 304 298 291 294 294 294 293 289 285 285 287 287 287 285
320 324 323 328 337 345 347 351 353 353 354 355 354 354 354 354 354 354 352 350 345 341 337 335 334 330 329 324 316 316 313 304 303 303 303 301 301 302 302 300 296 295 293
318 325 330 333 336 341 344 348 350 352 353 354 354 354 355 356 356 355 353 352 349 346 343 339 337 334 328 323 321 318 316 314 312 310 310 310 311 310 311 309 303 298 296
316 322 327 329 332 338 342 345 346 349 352 354 355 356 358 359 358 356 354 352 350 349 348 343 340 337 333 327 324 321 318 316 315 317 316 314 312 310 308 308 306 305 300
310 314 318 323 328 331 337 341 343 347 349 351 352 354 355 355 355 355 354 353 353 352 351 346 341 337 334 330 326 323 323 323 324 323 323 319 312 310 311 310 309 307 302
303 308 310 314 320 326 329 333 338 343 347 349 349 350 351 351 351 351 352 352 353 353 353 350 346 342 340 335 327 322 323 323 322 324 325 321 316 313 314 315 315 315 312
295 300 303 307 312 317 322 326 330 336 339 342 344 346 348 349 348 348 348 349 349 348 347 347 347 346 345 342 334 327 325 322 320 320 321 319 317 316 316 319 321 320 318
292 296 298 301 305 309 313 316 320 325 331 334 338 342 344 345 347 347 346 345 346 346 343 341 341 341 342 339 334 330 328 328 325 322 320 317 317 319 322 322 323 321 320
286 289 292 295 298 302 305 309 311 316 323 328 331 334 336 339 341 343 344 344 346 346 342 339 337 335 336 336 335 333 329 326 325 324 322 319 319 320 320 322 322 321 318
282 284 286 288 292 297 300 304 306 311 317 323 327 329 331 333 337 341 343 345 347 348 347 343 339 335 333 331 330 331 332 329 326 324 324 324 323 323 323 323 324 324 323
280 281 282 284 288 293 298 301 303 309 313 318 322 326 328 330 334 337 339 341 343 345 347 345 341 338 334 330 327 326 328 330 328 327 327 328 328 328 329 328 329 330 329
278 278 277 280 284 290 295 298 301 305 308 312 317 323 325 325 328 331 334 336 338 341 342 341 339 339 337 334 332 330 329 329 329 329 329 329 331 332 335 334 334 334 333
273 275 275 277 281 287 292 296 298 300 302 306 311 317 320 321 323 325 327 329 331 333 335 336 337 337 338 337 335 332 331 332 332 333 334 335 336 337 339 340 339 338 336
269 271 272 275 279 284 289 292 295 296 297 300 306 311 314 317 319 320 321 324 327 329 329 330 332 334 336 339 341 341 336 334 335 336 337 339 340 341 343 344 343 342 341
267 271 272 273 276 280 284 288 291 293 296 300 304 308 310 313 317 318 318 321 324 325 325 327 331 332 333 337 341 342 339 338 339 338 339 340 341 343 344 344 343 343 344
263 267 270 272 275 279 284 287 290 292 295 298 300 303 307 309 312 313 315 318 321 324 325 327 330 331 332 333 336 337 337 336 339 341 342 343 342 342 343 344 344 344 345
261 264 268 271 274 277 280 280 283 288 292 294 296 300 303 306 309 310 313 315 318 324 327 328 328 328 328 329 331 333 335 337 337 337 338 338 339 340 342 344 345 345 345
259 262 266 268 271 273 275 276 276 279 283 287 290 295 300 304 306 307 308 311 315 320 323 325 324 325 326 327 328 332 335 337 336 335 334 334 335 336 338 341 342 343 343